Location: Recife
(8.0585°S, 34.8848°W)
Time: 09:55:37
(UTC-03:00)

Courier 1B Rocket - Pass Details

Date: 14 April 2026
Orbit: 920 x 1201 km, 28.2° (Epoch: 13 May)

Event Time Altitude Azimuth Distance (km) Brightness Sun altitude
Rises 07:40:16 0° 257° (WSW) 3,726 7.5 32.6°
Reaches altitude 10° 07:43:39 10° 241° (WSW) 2,828 7.0 33.4°
Maximum altitude 07:48:39 21° 194° (SSW) 2,219 6.8 34.6°
Drops below altitude 10° 07:53:54 10° 148° (SSE) 2,985 7.8 35.8°
Sets 07:57:37 0° 132° (SE) 3,994 8.5 36.7°
